Willow Springs Elementary School VA US WEATHERSTEM current weather conditions

sailwx.info

Air temperature -3.1° C
Dewpoint -9.9° C

Last reported at 2020-Jan-21 05:00 UTC.
Time now 2020-Jan-21 05:49 UTC

Location: N 38°50' W 077°23'.
View on Google Maps.

See reports from other nearby stations

  
Tides and Currents Weather Stations Pressure Air Temp Water Temp Dewpoint Dewpoint Depression Visibility Wind Speed Wind Dir Waves Ship Positions
date/time (UTC)wind fromknots sea level pressurealtimeterstation pressurevisibilityair tempwater tempwave heightnotes
2020-Jan-21 05:00 -3.1
2020-Jan-21 04:40 162 3 gusting 10 -2.9
2020-Jan-21 04:30 122 3 gusting 8 -2.9
2020-Jan-21 04:20 123 3 gusting 10 -2.9
2020-Jan-21 04:10 113 2 gusting 6 -2.9
2020-Jan-21 04:00 092 3 gusting 7 -2.8
2020-Jan-21 03:40 065 4 gusting 8 -2.8
2020-Jan-21 03:30 121 1 gusting 9 -2.7
2020-Jan-21 03:20 092 1 gusting 8 -2.7
2020-Jan-21 03:10 057 2 gusting 8 -2.7
2020-Jan-21 03:00 086 6 gusting 6 -2.6
2020-Jan-21 02:40 091 3 gusting 6 -2.4
2020-Jan-21 02:30 106 1 gusting 6 -2.4
2020-Jan-21 02:20 170 4 gusting 8 -2.4
2020-Jan-21 02:10 134 1 gusting 4 -2.3
2020-Jan-21 02:00 119 1 gusting 6 -2.3
2020-Jan-21 01:50 101 0 gusting 6 -2.3
2020-Jan-21 01:30 093 2 gusting 6 -2.3
2020-Jan-21 01:20 059 0 gusting 4 -2.2
2020-Jan-21 01:10 094 0 gusting 7 -2.2
2020-Jan-21 00:50 104 2 gusting 3 -2.1
2020-Jan-21 00:40 -2.0
2020-Jan-21 00:30 -1.9
2020-Jan-21 00:20 -1.7
2020-Jan-21 00:10 -1.6
2020-Jan-21 00:00 -1.5
2020-Jan-20 23:50 089 1 gusting 3 -1.4
2020-Jan-20 23:40 -1.3
2020-Jan-20 23:20 086 2 gusting 5 -1.2
2020-Jan-20 23:10 071 4 gusting 4 -1.1
2020-Jan-20 23:00 129 1 gusting 6 -1.0
2020-Jan-20 22:50 101 1 gusting 5 -0.9
2020-Jan-20 22:40 103 0 gusting 3 -0.8
2020-Jan-20 22:20 066 0 gusting 6 -0.6
2020-Jan-20 22:10 084 2 gusting 6 -0.4
2020-Jan-20 22:00 077 3 gusting 7 -0.3
2020-Jan-20 21:50 307 1 gusting 4 -0.2
2020-Jan-20 21:40 -0.1
2020-Jan-20 21:30 065 0 gusting 6 -0.0
2020-Jan-20 21:20 0.1
2020-Jan-20 21:10 096 0 gusting 11 0.2
2020-Jan-20 21:00 095 1 gusting 12 0.4
2020-Jan-20 20:50 119 3 gusting 7 0.6
2020-Jan-20 20:40 063 6 gusting 13 0.7
2020-Jan-20 20:20 0.6
2020-Jan-20 20:10 190 1 gusting 7 0.8
2020-Jan-20 20:00 126 0 gusting 9 0.7
2020-Jan-20 19:50 035 4 gusting 13 0.7
2020-Jan-20 19:40 120 1 gusting 13 0.5
2020-Jan-20 19:30 092 5 gusting 7 0.6
2020-Jan-20 19:20 040 4 gusting 11 0.4
2020-Jan-20 19:10 059 3 gusting 10 0.4
2020-Jan-20 19:00 088 7 gusting 10 0.4
2020-Jan-20 18:40 148 2 gusting 11 0.1
2020-Jan-20 18:30 131 6 gusting 12 -0.1
2020-Jan-20 18:20 075 4 gusting 13 -0.2
2020-Jan-20 18:10 136 3 gusting 12 -0.3
2020-Jan-20 18:00 071 3 gusting 12 -0.3
2020-Jan-20 17:40 098 3 gusting 16 -0.7
2020-Jan-20 17:30 040 9 gusting 13 -0.8
2020-Jan-20 17:20 080 4 gusting 13 -0.9
2020-Jan-20 17:10 136 1 gusting 13 -1.2
2020-Jan-20 17:00 069 5 gusting 13 -1.3
2020-Jan-20 16:50 131 3 gusting 13 -1.6
2020-Jan-20 16:40 116 3 gusting 13 -1.4
2020-Jan-20 16:30 042 7 gusting 10 -1.6
2020-Jan-20 16:10 104 1 gusting 15 -1.9
2020-Jan-20 16:00 134 0 gusting 13 -1.8
2020-Jan-20 15:50 101 8 gusting 9 -1.9
2020-Jan-20 15:40 060 2 gusting 14 -2.3
2020-Jan-20 15:30 111 1 gusting 12 -2.6
2020-Jan-20 15:10 088 6 gusting 13 -3.1
2020-Jan-20 15:00 065 6 gusting 13 -3.3
2020-Jan-20 14:50 098 5 gusting 11 -3.3
2020-Jan-20 14:40 069 0 gusting 10 -3.4
2020-Jan-20 14:30 078 6 gusting 17 -3.8
2020-Jan-20 14:10 094 7 gusting 18 -4.3
2020-Jan-20 14:00 213 5 gusting 14 -4.5
2020-Jan-20 13:40 123 3 gusting 9 -4.9
2020-Jan-20 13:20 057 7 gusting 11 -5.2
2020-Jan-20 13:10 081 3 gusting 12 -5.3
2020-Jan-20 13:00 223 1 gusting 9 -5.4
2020-Jan-20 12:50 067 1 gusting 10 -5.4
2020-Jan-20 12:40 138 2 gusting 13 -5.4
2020-Jan-20 12:30 086 0 gusting 11 -5.4
2020-Jan-20 12:20 -5.4
2020-Jan-20 12:10 060 6 gusting 13 -5.4
2020-Jan-20 12:00 092 1 gusting 11 -5.3
2020-Jan-20 11:50 101 9 gusting 13 -5.3
2020-Jan-20 11:40 076 4 gusting 9 -5.3
2020-Jan-20 11:30 076 2 gusting 10 -5.3
2020-Jan-20 11:10 083 1 gusting 13 -5.2
2020-Jan-20 11:00 092 5 gusting 10 -5.2
2020-Jan-20 10:40 101 5 gusting 9 -5.1
2020-Jan-20 10:30 067 5 gusting 13 -5.1
2020-Jan-20 10:20 094 1 gusting 12 -5.1
2020-Jan-20 10:00 063 4 gusting 15 -5.0
2020-Jan-20 09:50 070 4 gusting 12 -5.0
2020-Jan-20 09:40 067 4 gusting 11 -5.0
2020-Jan-20 09:30 068 5 gusting 11 -5.0
2020-Jan-20 09:20 050 4 gusting 12 -5.0
2020-Jan-20 09:10 107 7 gusting 10 -4.9
2020-Jan-20 09:00 090 3 gusting 13 -4.9
2020-Jan-20 08:50 037 4 gusting 12 -4.9
2020-Jan-20 08:40 111 11 gusting 16 -4.9
2020-Jan-20 08:30 083 1 gusting 11 -4.8
2020-Jan-20 08:20 -4.8
2020-Jan-20 08:10 123 6 gusting 9 -4.8
2020-Jan-20 08:00 052 8 gusting 14 -4.7
2020-Jan-20 07:40 158 6 gusting 12 -4.7
2020-Jan-20 07:30 078 0 gusting 13 -4.6
2020-Jan-20 07:20 196 2 gusting 8 -4.6
2020-Jan-20 07:10 -4.6
2020-Jan-20 07:00 104 6 gusting 9 -4.5
2020-Jan-20 06:40 057 5 gusting 12 -4.3
2020-Jan-20 06:30 046 6 gusting 13 -4.3
2020-Jan-20 06:20 078 6 gusting 14 -4.2
2020-Jan-20 06:10 134 6 gusting 10 -4.2
2020-Jan-20 06:00 057 9 gusting 14 -4.1
2020-Jan-20 05:30 087 4 gusting 14 -3.8
2020-Jan-20 05:20 056 4 gusting 13 -3.8
2020-Jan-20 05:00 093 2 gusting 12 -3.6
2020-Jan-20 04:30 094 6 gusting 14 -3.2
2020-Jan-20 04:20 069 8 gusting 8 -3.1
2020-Jan-20 04:10 057 4 gusting 11 -2.9
2020-Jan-20 04:00 077 1 gusting 10 -2.8
2020-Jan-20 03:50 063 2 gusting 10 -2.7
2020-Jan-20 03:30 100 5 gusting 13 -2.6
2020-Jan-20 03:10 065 8 gusting 13 -2.3
2020-Jan-20 02:50 063 3 gusting 11 -1.9
2020-Jan-20 02:30 070 5 gusting 17 -1.7
2020-Jan-20 02:20 049 12 gusting 16 -1.5
2020-Jan-20 02:10 082 3 gusting 13 -1.4
2020-Jan-20 02:00 039 2 gusting 13 -1.3
2020-Jan-20 01:50 080 7 gusting 14 -1.2
2020-Jan-20 01:40 096 3 gusting 12 -1.1
2020-Jan-20 01:30 069 4 gusting 15 -1.0
2020-Jan-20 01:20 060 12 gusting 14 -0.9
2020-Jan-20 01:10 080 8 gusting 11 -0.8
2020-Jan-20 01:00 046 8 gusting 14 -0.7
2020-Jan-20 00:50 063 5 gusting 14 -0.7
2020-Jan-20 00:40 050 7 gusting 11 -0.6
2020-Jan-20 00:30 079 4 gusting 13 -0.4
2020-Jan-20 00:20 096 3 gusting 13 -0.3
2020-Jan-19 23:50 063 9 gusting 18 -0.1
2020-Jan-19 23:40 063 13 gusting 13 -0.0
2020-Jan-19 23:30 089 1 gusting 13 0.1
2020-Jan-19 23:20 125 4 gusting 10 0.1
2020-Jan-19 23:10 055 5 gusting 13 0.2
2020-Jan-19 22:50 038 3 gusting 17 0.4
2020-Jan-19 22:20 065 8 gusting 11 0.6
2020-Jan-19 22:10 040 3 gusting 15 0.7
2020-Jan-19 22:00 144 5 gusting 17 0.7
2020-Jan-19 21:50 048 6 gusting 16 0.8
2020-Jan-19 21:40 058 9 gusting 16 1.1
2020-Jan-19 21:30 109 13 gusting 23 1.2
2020-Jan-19 21:10 067 7 gusting 21 1.8
2020-Jan-19 21:00 108 3 gusting 16 2.1
2020-Jan-19 20:50 072 9 gusting 17 2.4
2020-Jan-19 20:40 065 10 gusting 16 2.7
2020-Jan-19 20:30 102 5 gusting 13 2.9
2020-Jan-19 20:10 043 9 gusting 17 2.9
2020-Jan-19 20:00 080 8 gusting 16 3.2
2020-Jan-19 19:50 090 8 gusting 19 3.4
2020-Jan-19 19:40 044 10 gusting 19 3.2
2020-Jan-19 19:30 063 11 gusting 26 3.3
2020-Jan-19 19:20 080 4 gusting 20 3.5
2020-Jan-19 19:10 032 16 gusting 23 3.5
2020-Jan-19 19:00 094 12 gusting 22 3.4
2020-Jan-19 18:40 071 16 gusting 23 3.8
2020-Jan-19 18:30 055 5 gusting 17 3.8
2020-Jan-19 18:10 103 2 gusting 20 4.2
2020-Jan-19 17:50 063 5 gusting 17 4.9
2020-Jan-19 17:40 094 3 gusting 12 5.8
2020-Jan-19 17:30 065 2 gusting 14 5.8
2020-Jan-19 17:20 161 3 gusting 15 5.7
2020-Jan-19 17:10 065 6 gusting 16 5.4
2020-Jan-19 17:00 084 6 gusting 17 5.4
2020-Jan-19 16:50 094 5 gusting 16 5.6
2020-Jan-19 16:30 061 11 gusting 16 5.7
2020-Jan-19 16:20 171 1 gusting 13 5.8
2020-Jan-19 16:10 073 3 gusting 17 5.5
2020-Jan-19 16:00 064 7 gusting 16 5.6
2020-Jan-19 15:50 092 1 gusting 13 5.7
2020-Jan-19 15:40 057 8 gusting 16 5.5
2020-Jan-19 15:30 077 6 gusting 13 5.4
2020-Jan-19 15:20 063 10 gusting 15 5.4
2020-Jan-19 15:10 065 9 gusting 13 5.4
2020-Jan-19 15:00 074 7 gusting 16 5.2
2020-Jan-19 14:50 087 3 gusting 14 5.2
2020-Jan-19 14:40 117 2 gusting 13 5.0
2020-Jan-19 14:20 085 2 gusting 10 4.3
2020-Jan-19 14:00 085 4 gusting 12 4.4
2020-Jan-19 13:50 059 4 gusting 12 4.4
2020-Jan-19 13:40 044 3 gusting 15 4.4
2020-Jan-19 13:30 077 8 gusting 14 4.3
2020-Jan-19 13:20 061 5 gusting 13 4.0
2020-Jan-19 13:00 110 1 gusting 7 3.4
2020-Jan-19 12:50 072 2 gusting 6 3.4
2020-Jan-19 12:40 093 1 gusting 4 3.4
2020-Jan-19 12:30 073 3 gusting 4 3.6
2020-Jan-19 12:10 065 1 gusting 5 3.9
2020-Jan-19 12:00 4.1
2020-Jan-19 11:50 4.3
2020-Jan-19 11:40 4.3
2020-Jan-19 11:30 4.4
2020-Jan-19 11:20 4.2
2020-Jan-19 11:10 4.4
2020-Jan-19 11:00 4.6
2020-Jan-19 10:50 4.7
2020-Jan-19 10:40 4.8
2020-Jan-19 10:20 4.9
2020-Jan-19 10:10 4.9
2020-Jan-19 10:00 4.9
2020-Jan-19 09:50 4.9
2020-Jan-19 09:40 5.0
2020-Jan-19 09:30 5.1
2020-Jan-19 09:10 5.3
2020-Jan-19 09:00 072 1 gusting 1 5.3
2020-Jan-19 08:40 5.3
2020-Jan-19 08:30 5.4
2020-Jan-19 08:20 5.4
2020-Jan-19 08:10 064 2 gusting 5 5.4
2020-Jan-19 08:00 076 1 gusting 3 5.4
2020-Jan-19 07:40 037 3 gusting 7 5.4
2020-Jan-19 07:30 030 0 gusting 5 5.3
2020-Jan-19 07:20 5.3
2020-Jan-19 07:10 5.2
2020-Jan-19 06:50 5.2
2020-Jan-19 06:40 031 1 gusting 4 5.2
2020-Jan-19 06:30 052 1 gusting 4 5.1
2020-Jan-19 06:20 028 2 gusting 5 5.0
2020-Jan-19 06:10 005 1 gusting 7 4.9
2020-Jan-19 05:50 070 10 gusting 10 4.8
2020-Jan-19 05:40 355 1 gusting 4 4.8
2020-Jan-19 05:30 039 1 gusting 4 4.7
2020-Jan-19 05:20 344 1 gusting 3 4.6
2020-Jan-19 05:10 344 0 gusting 4 4.6
2020-Jan-19 05:00 317 1 gusting 9 4.5